Regional Weather Roundup
Issued by NWS

Home | Current Version | Previous Version | Text Only | Print | Product List | Glossary On
Versions: 1 2 3 4 5 6 7 8 9 10 11 12 13 14 15 16 17 18 19 20 21 22 23 24 25 26 27 28 29 30 31 32 33 34 35 36 37 38 39 40 41 42 43 44 45 46 47 48 49 50
000
ASUS43 KBIS 061402
RWRND

NORTH DAKOTA REGIONAL WEATHER ROUNDUP
NATIONAL WEATHER SERVICE BISMARCK ND
800 AM CST SAT FEB 06 2016

NOTE: "FAIR" INDICATES FEW OR NO CLOUDS BELOW 12,000 FEET WITH NO
SIGNIFICANT WEATHER AND/OR OBSTRUCTIONS TO VISIBILITY.


NDZ001>003-009>011-017-061500-
NORTHWEST NORTH DAKOTA

CITY           SKY/WX    TMP DP  RH WIND       PRES   REMARKS
WILLISTON      CLOUDY    38  27  64 S9        29.75F
MINOT          CLOUDY    40  25  55 SW16      29.71F
MINOT AFB      CLOUDY    39  29  66 W14       29.69F
$$

NDZ018>021-031>035-040>046-061500-
SOUTHWEST NORTH DAKOTA

CITY           SKY/WX    TMP DP  RH WIND       PRES   REMARKS
BISMARCK       CLOUDY    31  23  72 SW3       29.84F
DICKINSON      CLOUDY    34  21  59 W14       29.81F
GARRISON         N/A     34  26  72 SW12      29.75F
HETTINGER ARPT PTCLDY    33  20  58 W10       29.90F
$$

NDZ004>008-012>016-024-026-027-054-061500-
NORTHEAST NORTH DAKOTA

CITY           SKY/WX    TMP DP  RH WIND       PRES   REMARKS
GRAND FORKS    CLOUDY    24  18  77 S12       29.83F WCI  13
GRND FRKS AFB  CLOUDY    22  18  86 S10       29.81F WCI  11
DEVILS LAKE    CLOUDY    30  24  78 SW9       29.76F
$$

NDZ022-023-025-028>030-036>039-047>053-061500-
SOUTHEAST NORTH DAKOTA

CITY           SKY/WX    TMP DP  RH WIND       PRES   REMARKS
FARGO          CLOUDY    24  19  81 S12       29.88F WCI  13
JAMESTOWN      CLOUDY    33  23  66 SW14      29.81F
$$




USA.gov is the U.S. government's official web portal to all federal, state and local government web resources and services.